Starlink 35297

operational
NORAD ID: 66010 Int'l Des: 2025-232 Owner: SPXS Country: US Constellation: starlink
LEOCIRCULAR

Starlink 35297について

説明を読み込み中...

リアルタイム位置

3D地球を読み込み中...

次回通過

高度履歴

Altitude vs Time

uPlot chart will show altitude changes over time

軌道要素

1 66010C 25232F 25290.41298611 .00988020 00000+0 13722-2 0 2904
2 66010 53.1575 58.9083 0008727 285.8762 218.3829 16.04184049 17
Epoch: Oct 17, 2025 • Age: 63 hours

現在のステータス

高度 249.0 km
速度 7.76 km/s
衛星直下点 8.27°N, 158.64°E
打ち上げ日 Oct 16, 2025
運用期間 3 days
タイプ internet

技術仕様

分類 Payload
質量 575.00 kg
乾燥質量 530.00 kg
総質量 575.00 kg
長さ 0.30 m
直径 4.10 m
スパン 29.00 m
形状 Box + pan
製造者 SPXS
バスタイプ Starlink V2MO
フェーズステータス In Orbit
所有者/国 SPXS/US

大規模コンステレーション

Loading constellations...